Time,TemperatureF,DewpointF,PressureIn,WindDirection,WindDirectionDegrees,WindSpeedMPH,WindSpeedGustMPH,Humidity,HourlyPrecipIn,Conditions,Clouds,dailyrainin,SoftwareType,DateUTC
2013-04-08 00:00:00,56.9,43.2,29.90,South,180,3.0,9.0,60,0.00,,,-99.99,WeatherLink 5.6,2013-04-08 04:00:00,
2013-04-08 00:30:00,57.0,43.2,29.90,South,180,5.0,14.0,60,0.00,,,-99.99,WeatherLink 5.6,2013-04-08 04:30:00,
2013-04-08 01:00:00,56.8,43.5,29.90,South,180,6.0,14.0,61,0.00,,,-99.99,WeatherLink 5.6,2013-04-08 05:00:00,
2013-04-08 01:30:00,56.2,43.3,29.90,South,180,7.0,16.0,62,0.00,,,-99.99,WeatherLink 5.6,2013-04-08 05:30:00,
2013-04-08 02:00:00,55.1,43.5,29.90,South,180,4.0,15.0,65,0.00,,,-99.99,WeatherLink 5.6,2013-04-08 06:00:00,
2013-04-08 02:30:00,54.8,43.3,29.89,SSE,157,3.0,9.0,65,0.00,,,-99.99,WeatherLink 5.6,2013-04-08 06:30:00,
2013-04-08 03:00:00,54.9,43.7,29.88,SSE,157,4.0,12.0,66,0.00,,,-99.99,WeatherLink 5.6,2013-04-08 07:00:00,
2013-04-08 03:30:00,54.0,43.3,29.88,South,180,3.0,11.0,67,0.00,,,-99.99,WeatherLink 5.6,2013-04-08 07:30:00,
2013-04-08 04:00:00,53.1,43.2,29.88,SSE,157,2.0,6.0,69,0.00,,,-99.99,WeatherLink 5.6,2013-04-08 08:00:00,
2013-04-08 04:30:00,54.7,43.6,29.88,South,180,6.0,14.0,66,0.00,,,-99.99,WeatherLink 5.6,2013-04-08 08:30:00,
2013-04-08 05:00:00,54.6,43.5,29.88,South,180,6.0,14.0,66,0.00,,,-99.99,WeatherLink 5.6,2013-04-08 09:00:00,
2013-04-08 05:30:00,54.2,43.5,29.89,South,180,5.0,12.0,67,0.00,,,-99.99,WeatherLink 5.6,2013-04-08 09:30:00,
2013-04-08 06:00:00,54.0,43.3,29.90,South,180,4.0,12.0,67,0.00,,,-99.99,WeatherLink 5.6,2013-04-08 10:00:00,
2013-04-08 06:30:00,54.2,43.5,29.90,South,180,4.0,12.0,67,0.00,,,-99.99,WeatherLink 5.6,2013-04-08 10:30:00,
2013-04-08 07:00:00,54.1,43.4,29.91,South,180,5.0,13.0,67,0.00,,,-99.99,WeatherLink 5.6,2013-04-08 11:00:00,
2013-04-08 07:30:00,54.7,43.6,29.92,South,180,5.0,15.0,66,0.00,,,-99.99,WeatherLink 5.6,2013-04-08 11:30:00,
2013-04-08 08:00:00,54.9,43.7,29.92,South,180,6.0,13.0,66,0.00,,,-99.99,WeatherLink 5.6,2013-04-08 12:00:00,
2013-04-08 08:30:00,56.8,44.7,29.91,South,180,6.0,17.0,64,0.00,,,-99.99,WeatherLink 5.6,2013-04-08 12:30:00,
2013-04-08 09:00:00,57.5,45.0,29.91,South,180,7.0,17.0,63,0.00,,,-99.99,WeatherLink 5.6,2013-04-08 13:00:00,
2013-04-08 09:30:00,58.1,45.1,29.92,South,180,7.0,17.0,62,0.00,,,-99.99,WeatherLink 5.6,2013-04-08 13:30:00,
2013-04-08 10:00:00,59.6,46.1,29.91,South,180,7.0,17.0,61,0.00,,,-99.99,WeatherLink 5.6,2013-04-08 14:00:00,
2013-04-08 10:30:00,61.0,47.0,29.92,South,180,9.0,19.0,60,0.00,,,-99.99,WeatherLink 5.6,2013-04-08 14:30:00,
2013-04-08 11:00:00,62.4,47.9,29.92,South,180,8.0,18.0,59,0.00,,,-99.99,WeatherLink 5.6,2013-04-08 15:00:00,
2013-04-08 11:30:00,62.5,49.3,29.91,South,180,7.0,20.0,62,0.00,,,-99.99,WeatherLink 5.6,2013-04-08 15:30:00,
2013-04-08 12:00:00,63.9,50.2,29.92,SSW,202,11.0,26.0,61,0.00,,,-99.99,WeatherLink 5.6,2013-04-08 16:00:00,
2013-04-08 12:30:00,64.1,50.4,29.91,SSW,202,9.0,22.0,61,0.00,,,-99.99,WeatherLink 5.6,2013-04-08 16:30:00,
2013-04-08 13:00:00,64.1,50.4,29.90,SSW,202,9.0,32.0,61,0.00,,,-99.99,WeatherLink 5.6,2013-04-08 17:00:00,
2013-04-08 13:30:00,65.0,51.2,29.89,SSW,202,9.0,25.0,61,0.00,,,-99.99,WeatherLink 5.6,2013-04-08 17:30:00,
2013-04-08 14:00:00,66.4,50.7,29.87,SSW,202,7.0,23.0,57,0.00,,,-99.99,WeatherLink 5.6,2013-04-08 18:00:00,
2013-04-08 14:30:00,66.8,50.6,29.87,SSW,202,9.0,21.0,56,0.00,,,-99.99,WeatherLink 5.6,2013-04-08 18:30:00,
2013-04-08 15:00:00,66.7,49.5,29.86,SSW,202,9.0,22.0,54,0.00,,,-99.99,WeatherLink 5.6,2013-04-08 19:00:00,
2013-04-08 15:30:00,68.1,50.3,29.86,South,180,8.0,21.0,53,0.00,,,-99.99,WeatherLink 5.6,2013-04-08 19:30:00,
2013-04-08 16:00:00,69.7,51.3,29.84,SW,225,9.0,22.0,52,0.00,,,-99.99,WeatherLink 5.6,2013-04-08 20:00:00,
2013-04-08 16:30:00,68.8,49.4,29.84,SW,225,9.0,25.0,50,0.00,,,-99.99,WeatherLink 5.6,2013-04-08 20:30:00,
2013-04-08 17:00:00,68.5,49.7,29.84,West,270,6.0,20.0,51,0.00,,,-99.99,WeatherLink 5.6,2013-04-08 21:00:00,
2013-04-08 17:30:00,68.1,49.8,29.84,WSW,247,6.0,20.0,52,0.00,,,-99.99,WeatherLink 5.6,2013-04-08 21:30:00,
2013-04-08 18:00:00,67.8,50.0,29.84,WSW,247,6.0,17.0,53,0.00,,,-99.99,WeatherLink 5.6,2013-04-08 22:00:00,
2013-04-08 18:30:00,67.2,50.0,29.84,SSW,202,4.0,17.0,54,0.00,,,-99.99,WeatherLink 5.6,2013-04-08 22:30:00,
2013-04-08 19:00:00,67.0,49.8,29.84,SSW,202,3.0,13.0,54,0.00,,,-99.99,WeatherLink 5.6,2013-04-08 23:00:00,
2013-04-08 19:30:00,66.3,50.1,29.85,SW,225,2.0,14.0,56,0.00,,,-99.99,WeatherLink 5.6,2013-04-08 23:30:00,
2013-04-08 20:00:00,65.4,49.8,29.84,South,180,2.0,11.0,57,0.00,,,-99.99,WeatherLink 5.6,2013-04-09 00:00:00,
2013-04-08 20:30:00,65.1,50.0,29.83,South,180,6.0,18.0,58,0.00,,,-99.99,WeatherLink 5.6,2013-04-09 00:30:00,
2013-04-08 21:00:00,64.3,49.7,29.85,South,180,3.0,12.0,59,0.00,,,-99.99,WeatherLink 5.6,2013-04-09 01:00:00,
2013-04-08 21:30:00,63.3,49.6,29.86,SSW,202,0.0,5.0,61,0.00,,,-99.99,WeatherLink 5.6,2013-04-09 01:30:00,
2013-04-08 22:00:00,63.2,49.5,29.88,South,180,1.0,6.0,61,0.00,,,-99.99,WeatherLink 5.6,2013-04-09 02:00:00,
2013-04-08 22:30:00,62.9,49.7,29.87,South,180,0.0,4.0,62,0.00,,,-99.99,WeatherLink 5.6,2013-04-09 02:30:00,
2013-04-08 23:00:00,62.2,49.4,29.88,South,180,1.0,5.0,63,0.00,,,-99.99,WeatherLink 5.6,2013-04-09 03:00:00,
2013-04-08 23:30:00,61.8,49.5,29.88,SSW,202,0.0,7.0,64,0.00,,,-99.99,WeatherLink 5.6,2013-04-09 03:30:00,